This is the latest recevied weather packets stored in our database for station/object AI5YA-13. If no packets are shown the sender has not sent any weather packets the latest 10 day(s).
| Time | Temp. | Humidity | Pressure | Rain* | Wind** | Luminosity | Snow |
|---|---|---|---|---|---|---|---|
| 1777272135 | 23.33° C | 21% | 1008.5 hPa | 0 mm | - | 0 W/m² | - |
| 1777271830 | 22.78° C | 22% | 1008.3 hPa | 0 mm | - | 0 W/m² | - |
| 1777271526 | 22.78° C | 22% | 1008.5 hPa | 0 mm | - | 0 W/m² | - |
| 1777271223 | 23.33° C | 22% | 1008.3 hPa | 0 mm | - | 0 W/m² | - |
| 1777270918 | 23.33° C | 21% | 1008.4 hPa | 0 mm | - | 0 W/m² | - |
| 1777270615 | 23.33° C | 21% | 1008.4 hPa | 0 mm | - | 0 W/m² | - |
| 1777270312 | 23.33° C | 22% | 1008.1 hPa | 0 mm | - | 0 W/m² | - |
| 1777270009 | 23.89° C | 21% | 1008.1 hPa | 0 mm | - | 0 W/m² | - |
| 1777269705 | 23.89° C | 21% | 1008.1 hPa | 0 mm | - | 0 W/m² | - |
| 1777269402 | 24.44° C | 20% | 1008.1 hPa | 0 mm | - | 0 W/m² | - |
| 1777269101 | 25° C | 20% | 1007.8 hPa | 0 mm | - | 0 W/m² | - |
| 1777268797 | 25.56° C | 19% | 1007.9 hPa | 0 mm | - | 0 W/m² | - |
| 1777268494 | 25° C | 20% | 1007.6 hPa | 0 mm | - | 0 W/m² | - |
| 1777268191 | 25° C | 20% | 1007.8 hPa | 0 mm | - | 0 W/m² | - |
| 1777267888 | 23.89° C | 21% | 1007.9 hPa | 0 mm | - | 0 W/m² | - |
| 1777267584 | 23.89° C | 21% | 1007.9 hPa | 0 mm | - | 0 W/m² | - |
| 1777267281 | 24.44° C | 21% | 1007.7 hPa | 0 mm | - | 0 W/m² | - |
| 1777266978 | 23.89° C | 21% | 1007.4 hPa | 0 mm | - | 0 W/m² | - |
| 1777266675 | 25° C | 20% | 1007.7 hPa | 0 mm | - | 0 W/m² | - |
| 1777266372 | 25° C | 20% | 1007.5 hPa | 0 mm | - | 0 W/m² | - |
| 1777266068 | 25° C | 20% | 1007.5 hPa | 0 mm | - | 0 W/m² | - |
| 1777265763 | 25° C | 20% | 1007.6 hPa | 0 mm | - | 0 W/m² | - |
| 1777265458 | 25.56° C | 20% | 1007.5 hPa | 0 mm | - | 0 W/m² | - |
| 1777265155 | 25.56° C | 19% | 1007.5 hPa | 0 mm | - | 0 W/m² | - |
| 1777264852 | 25.56° C | 19% | 1007 hPa | 0 mm | - | 0 W/m² | - |
* Rain latest hour (hover to see other rain measurements)
** Current wind speed in m/s (hover to see current wind gust speed)